METEOR 2-20 DEB, 44700

Orbit data source: Space-Track

METEOR 2-20 DEB, 44700 is space debris in LEO originally from a launch on Fri, 28 Sep 1990 UTC launched from the Plesetsk Missile And Space Complex (PKMTR). Debris objects in space refer to the collection of defunct objects orbiting the Earth. Examples of debris include non-operational satellites, rocket bodies, and fragments generated from explosions, collisions, or faulty payload assembly.

Loading next visibility...
Identifier
44700, 1990-086E
Orbit
LEO
Country
Flag of CISCIS
Related business
Manufacturer
Unknown
Mission
Spacecraft
Bus & Motor
Unknown
Mass
Unknown
Launch date (UTC)
1990-09-28 (36 years ago)
Launch vehicle
Unknown
Launch site
Plesetsk Missile And Space Complex (PKMTR)
Object type
Payload
Rocket body
Debris
Shape & HBR
Unknown shape, 0.1 m
Radar Cross Section
Small (<0.1 m²)

Expand to show TLE details & history
Last TLE update: 2 weeks ago

TLE from 2 weeks ago
0 METEOR 2-20 DEB
1 44700U 90086E   26162.61280299  .00003718  00000-0  21166-2 0  9999
2 44700  82.5065 119.7876 0011545  93.7900  31.5364 14.09542900639640
Epoch: 2026-06-11T14:42Z
TLE epoch observation values (Epoch: 2026-06-11T14:42:26.178Z)
Latitude
54.02087°
Longitude
168.84134°
Altitude
862.696 km
Speed
7.43 km/s
True Right ascension
19h 17m 37s
True Declination
53° 51' 34"
Sunlit
Object was in daylight at epoch
Visualization orbit readout
Latitude
Unknown
Longitude
Unknown
Altitude
Unknown
Speed
Unknown
Apparent Right ascension
Unknown
Apparent Declination
Unknown
Sunlit
N/A
Visualization observer readout
Local Sidereal Time
21:24:49
Azimuth
Unknown
Elevation
Unknown
Doppler factor
Unknown
Orbital elements
Apogee altitude
866.409 km
Perigee altitude
849.701 km
Semi-major axis
7,236.192 km
Eccentricity
0.00115
Inclination
82.5065°
RAAN
119.7876°
Arg. of periapsis
93.79°
True anomaly
31.60568°
Mean anomaly
31.5364°
Eccentric anomaly
31.57103°
Mean motion
3.52597 °/min
Orbital period
102.1 mins
BSTAR
0.0021166
Loading maneuver chart data...
Computing Atmospheric mass density...
Loading historical data...
Loading historical data...
Loading historical data...
Loading historical data...
Loading historical data...
Loading historical data...
Loading historical data...

Documentation

Showing up to 5 results
|